�N����,����,�~����,�C��,���x,�C��,����,���ϕ���,�ő�u�ԕ���,�ő厞����,���˗�,�I�_���x,�n�����x,�ő啗���N��,DTYPE
"19/06/06","00:10",0.0,21.2,74.4,1006.0,323.8,1.2,2.2,343.2,0.00,16.5,22.5,"00:07:20",1
"19/06/06","00:20",0.0,20.9,75.9,1006.0,300.2,1.2,1.9,282.7,0.00,16.5,22.4,"00:16:08",1
"19/06/06","00:30",0.0,20.5,76.7,1006.0,290.0,1.0,1.7,319.4,0.00,16.3,22.1,"00:21:44",1
"19/06/06","00:40",0.0,20.2,77.5,1006.4,293.9,0.8,1.4,323.3,0.00,16.2,22.2,"00:32:32",1
"19/06/06","00:50",0.0,19.9,78.5,1006.4,288.4,0.8,1.2,312.5,0.00,16.1,22.0,"00:41:04",1
"19/06/06","01:00",0.0,19.7,79.6,1006.4,299.4,1.0,1.7,330.5,0.00,16.1,21.9,"00:57:04",1
"19/06/06","01:10",0.0,19.6,80.3,1006.0,291.1,0.8,1.3,304.2,0.00,16.2,21.8,"01:09:52",1
"19/06/06","01:20",0.0,19.6,80.8,1006.2,287.6,1.0,1.6,263.5,0.00,16.3,21.8,"01:18:56",1
"19/06/06","01:30",0.0,19.4,81.6,1006.2,296.1,1.0,1.4,330.9,0.00,16.2,21.8,"01:21:12",1
"19/06/06","01:40",0.0,19.3,81.9,1006.2,300.5,0.7,1.0,331.2,0.00,16.2,21.7,"01:31:20",1
"19/06/06","01:50",0.0,19.2,83.1,1006.2,284.6,0.7,1.4,320.1,0.00,16.3,21.6,"01:49:36",1
"19/06/06","02:00",0.0,19.2,83.5,1006.2,316.6,0.8,1.2,333.0,0.00,16.4,21.4,"01:52:48",1
"19/06/06","02:10",0.0,19.1,83.7,1006.4,329.1,1.0,1.3,341.2,0.00,16.3,21.4,"02:06:32",1
"19/06/06","02:20",0.0,19.0,83.6,1006.2,305.9,0.8,1.3,349.1,0.00,16.2,21.4,"02:10:40",1
"19/06/06","02:30",0.0,18.8,84.9,1006.2,292.6,1.0,2.0,318.6,0.00,16.2,21.3,"02:24:08",1
"19/06/06","02:40",0.0,18.6,84.6,1006.2,289.5,1.0,1.6,306.3,0.00,16.0,21.4,"02:38:56",1
"19/06/06","02:50",0.0,18.6,84.7,1006.2,299.9,1.2,2.1,317.0,0.00,16.0,21.2,"02:41:04",1
"19/06/06","03:00",0.0,18.5,85.8,1006.2,321.5,1.3,2.0,325.9,0.00,16.1,21.2,"02:50:02",1
"19/06/06","03:10",0.0,18.5,86.0,1006.7,320.4,1.2,2.1,325.5,0.00,16.2,20.9,"03:00:24",1
"19/06/06","03:20",0.0,18.4,86.2,1006.9,316.8,1.3,1.8,325.2,0.00,16.1,21.0,"03:13:12",1
"19/06/06","03:30",0.0,18.4,86.5,1006.7,324.6,1.3,2.0,324.1,0.00,16.1,20.8,"03:26:00",1
"19/06/06","03:40",0.0,18.5,86.7,1006.7,325.2,1.1,1.9,323.8,0.00,16.3,20.8,"03:30:40",1
"19/06/06","03:50",0.0,18.3,86.2,1006.7,307.4,0.7,1.3,328.3,0.00,16.0,20.9,"03:41:04",1
"19/06/06","04:00",0.0,18.0,87.1,1006.9,261.9,0.5,1.1,280.6,0.00,15.9,20.8,"03:58:48",1
"19/06/06","04:10",0.0,17.9,87.6,1007.4,295.6,1.1,1.7,320.8,0.00,15.9,20.7,"04:08:32",1
"19/06/06","04:20",0.0,18.0,87.9,1007.1,329.6,1.3,2.0,334.0,0.00,16.0,20.5,"04:18:16",1
"19/06/06","04:30",0.0,17.7,88.0,1007.4,297.5,1.0,1.7,316.6,0.00,15.7,20.5,"04:21:20",1
"19/06/06","04:40",0.0,17.3,88.9,1007.6,287.4,0.6,1.0,302.2,0.00,15.5,20.6,"04:35:20",1
"19/06/06","04:50",0.0,17.2,89.2,1007.6,309.9,0.6,1.1,312.0,0.00,15.4,20.4,"04:44:56",1
"19/06/06","05:00",0.0,17.1,89.6,1007.6,287.0,0.8,1.4,327.7,0.00,15.4,20.4,"04:58:56",1
"19/06/06","05:10",0.0,17.1,90.0,1007.6,298.3,0.7,1.6,320.3,0.00,15.5,20.3,"05:00:32",1
"19/06/06","05:20",0.0,17.4,89.8,1007.8,311.0,1.5,2.6,324.7,0.00,15.7,20.4,"05:16:32",1
"19/06/06","05:30",0.0,17.6,89.1,1007.8,308.1,1.2,1.9,323.6,0.00,15.8,20.1,"05:20:24",1
"19/06/06","05:40",0.0,17.5,89.3,1008.1,307.3,1.1,1.4,310.6,0.00,15.8,20.1,"05:38:08",1
"19/06/06","05:50",0.0,17.6,89.8,1008.1,299.9,1.2,2.7,329.4,0.00,15.9,20.1,"05:46:56",1
"19/06/06","06:00",0.0,18.0,89.5,1008.1,308.3,1.2,2.1,309.6,0.00,16.3,20.2,"05:51:52",1
"19/06/06","06:10",0.0,18.4,89.2,1008.1,319.5,1.3,2.1,343.0,0.01,16.6,20.1,"06:07:36",1
"19/06/06","06:20",0.0,18.8,88.6,1008.1,332.0,1.2,2.5,333.9,0.02,16.9,20.0,"06:13:36",1
"19/06/06","06:30",0.0,19.3,88.1,1008.3,320.6,1.3,2.6,337.0,0.04,17.3,20.3,"06:22:24",1
"19/06/06","06:40",0.0,19.8,86.5,1008.8,324.0,1.3,2.1,342.5,0.05,17.5,20.1,"06:35:20",1
"19/06/06","06:50",0.0,20.3,84.9,1008.6,337.0,1.8,3.2,339.9,0.07,17.7,20.2,"06:43:12",1
"19/06/06","07:00",0.0,20.8,81.9,1008.8,322.0,1.7,3.2,336.4,0.08,17.6,20.2,"06:54:00",1
"19/06/06","07:10",0.0,21.1,79.6,1009.3,289.3,1.1,2.1,302.5,0.09,17.5,20.4,"07:00:24",1
"19/06/06","07:20",0.0,21.5,77.2,1009.0,279.6,1.1,2.0,317.9,0.12,17.4,20.5,"07:14:00",1
"19/06/06","07:30",0.0,22.0,75.1,1009.0,300.8,1.2,2.4,344.6,0.15,17.4,20.7,"07:20:24",1
"19/06/06","07:40",0.0,22.2,73.3,1009.0,327.2,1.3,2.5,334.4,0.17,17.2,21.0,"07:38:56",1
"19/06/06","07:50",0.0,22.7,72.1,1008.8,303.8,0.8,1.8,359.5,0.19,17.5,21.0,"07:43:36",1
"19/06/06","08:00",0.0,23.2,70.4,1008.8,320.4,1.0,2.6,325.1,0.21,17.6,21.2,"07:57:28",1
"19/06/06","08:10",0.0,23.4,68.6,1008.8,310.3,0.7,2.0,332.8,0.24,17.3,21.1,"08:07:04",1
"19/06/06","08:20",0.0,23.9,68.3,1008.6,264.7,0.7,2.2,317.9,0.25,17.7,21.3,"08:18:56",1
"19/06/06","08:30",0.0,24.4,64.6,1008.3,288.7,1.1,2.5,342.8,0.27,17.3,21.5,"08:26:32",1
"19/06/06","08:40",0.0,24.9,61.2,1008.3,345.0,0.8,2.7,348.5,0.31,17.0,21.7,"08:30:24",1
"19/06/06","08:50",0.0,24.9,61.3,1007.8,346.1,1.7,3.9,339.8,0.33,17.0,21.7,"08:46:40",1
"19/06/06","09:00",0.0,25.2,59.1,1008.1,350.1,1.7,4.2,326.8,0.35,16.7,21.9,"08:51:04",1
"19/06/06","09:10",0.0,25.4,56.4,1007.8,346.0,0.8,2.5,326.4,0.37,16.1,22.3,"09:01:52",1
"19/06/06","09:20",0.0,26.4,58.1,1007.6,319.6,0.7,2.1,8.8,0.39,17.5,22.5,"09:17:52",1
"19/06/06","09:30",0.0,26.0,55.0,1007.8,273.5,1.1,2.5,348.2,0.41,16.3,22.5,"09:28:00",1
"19/06/06","09:40",0.0,25.7,59.5,1007.6,247.7,1.0,2.0,229.5,0.43,17.3,22.9,"09:36:32",1
"19/06/06","09:50",0.0,26.5,57.3,1007.8,248.6,1.0,2.5,228.8,0.44,17.4,23.2,"09:44:32",1
"19/06/06","10:00",0.0,26.2,55.0,1007.6,286.8,1.0,2.2,312.1,0.46,16.5,23.4,"09:53:28",1
"19/06/06","10:10",0.0,27.2,55.2,1008.1,1.1,0.7,2.0,351.9,0.48,17.5,23.6,"10:05:20",1
"19/06/06","10:20",0.0,26.8,56.2,1008.1,108.9,1.0,2.6,34.1,0.50,17.4,23.8,"10:15:04",1
"19/06/06","10:30",0.0,27.1,55.0,1007.8,116.2,1.1,2.8,128.2,0.51,17.3,23.9,"10:23:20",1
"19/06/06","10:40",0.0,28.1,55.4,1008.1,131.4,0.8,2.1,220.9,0.53,18.4,24.2,"10:38:40",1
"19/06/06","10:50",0.0,27.5,53.4,1008.3,273.1,1.6,4.3,342.1,0.53,17.2,24.6,"10:41:12",1
"19/06/06","11:00",0.0,27.5,53.9,1008.1,310.5,1.2,3.3,349.2,0.53,17.4,24.8,"10:57:20",1
"19/06/06","11:10",0.0,27.6,53.2,1007.8,240.2,1.8,5.4,228.9,0.55,17.3,25.0,"11:05:52",1
"19/06/06","11:20",0.0,27.6,53.1,1007.8,232.7,2.2,4.1,223.7,0.56,17.2,25.3,"11:10:24",1
"19/06/06","11:30",0.0,28.0,50.6,1007.4,230.1,2.6,5.2,227.5,0.57,16.8,25.6,"11:29:04",1
"19/06/06","11:40",0.0,28.2,50.4,1007.1,233.5,2.2,4.7,229.2,0.58,17.0,25.8,"11:32:16",1
"19/06/06","11:50",0.0,28.7,51.5,1006.9,210.0,2.7,5.2,226.1,0.58,17.8,26.2,"11:41:04",1
"19/06/06","12:00",0.0,28.9,48.2,1007.1,224.3,2.2,4.5,215.0,0.59,16.9,26.6,"11:56:56",1
"19/06/06","12:10",0.0,29.2,46.3,1006.9,197.3,2.3,4.4,223.9,0.59,16.5,26.6,"12:03:12",1
"19/06/06","12:20",0.0,29.8,45.9,1006.9,203.9,2.2,3.9,206.8,0.59,16.9,27.0,"12:12:00",1
"19/06/06","12:30",0.0,29.8,46.3,1006.9,242.0,2.3,6.2,197.4,0.59,17.1,27.1,"12:23:12",1
"19/06/06","12:40",0.0,30.4,46.1,1006.9,232.7,2.0,4.4,211.4,0.59,17.6,27.4,"12:36:40",1
"19/06/06","12:50",0.0,30.5,43.9,1006.7,243.4,1.8,4.3,233.2,0.59,16.9,27.9,"12:43:20",1
"19/06/06","13:00",0.0,30.7,44.0,1007.1,251.5,1.1,2.7,225.6,0.60,17.1,27.9,"12:54:48",1
"19/06/06","13:10",0.0,30.7,42.8,1006.9,219.8,1.5,3.3,252.0,0.43,16.7,27.9,"13:00:56",1
"19/06/06","13:20",0.0,30.5,41.9,1006.7,266.5,1.3,3.3,234.2,0.40,16.1,27.9,"13:15:12",1
"19/06/06","13:30",0.0,30.1,43.7,1006.9,259.9,1.3,3.1,196.5,0.23,16.4,27.7,"13:21:28",1
"19/06/06","13:40",0.0,30.2,42.1,1006.2,252.8,1.5,3.3,242.2,0.26,16.0,27.7,"13:31:28",1
"19/06/06","13:50",0.0,30.2,43.0,1006.0,315.5,1.6,3.6,338.3,0.25,16.3,27.4,"13:43:04",1
"19/06/06","14:00",0.0,30.3,42.5,1006.0,298.4,1.6,4.5,343.2,0.32,16.2,27.5,"13:52:00",1
"19/06/06","14:10",0.0,29.6,41.4,1006.0,261.2,1.6,3.9,238.5,0.22,15.2,27.4,"14:01:20",1
"19/06/06","14:20",0.0,29.6,40.5,1005.5,281.5,1.3,3.7,248.0,0.19,14.8,27.2,"14:13:36",1
"19/06/06","14:30",0.0,29.5,40.7,1005.5,263.0,1.6,4.0,230.6,0.18,14.8,27.2,"14:23:12",1
"19/06/06","14:40",0.0,29.5,41.2,1005.0,250.4,1.6,4.2,254.9,0.18,15.0,26.9,"14:34:16",1
"19/06/06","14:50",0.0,29.2,40.5,1005.0,251.3,1.6,3.2,255.9,0.15,14.5,26.9,"14:42:00",1
"19/06/06","15:00",0.0,29.2,39.2,1005.0,260.2,1.3,3.4,251.6,0.14,14.0,26.9,"14:50:32",1
"19/06/06","15:10",0.0,30.0,38.1,1005.0,276.1,1.3,4.3,243.2,0.31,14.2,26.7,"15:08:48",1
"19/06/06","15:20",0.0,29.4,40.7,1005.0,308.7,1.2,3.6,333.9,0.17,14.7,26.5,"15:18:00",1
"19/06/06","15:30",0.0,30.1,37.6,1005.2,295.8,1.3,4.7,326.2,0.28,14.1,26.7,"15:20:48",1
"19/06/06","15:40",0.0,29.6,41.1,1005.0,316.1,1.1,2.7,255.6,0.16,15.0,26.7,"15:30:16",1
"19/06/06","15:50",0.0,29.8,40.4,1005.2,266.2,1.3,4.0,237.1,0.20,15.0,26.4,"15:41:20",1
"19/06/06","16:00",0.0,30.9,39.1,1005.0,290.3,1.3,3.3,320.3,0.32,15.4,26.5,"15:59:28",1
"19/06/06","16:10",0.0,30.5,37.4,1005.5,282.0,1.1,2.8,240.3,0.32,14.4,26.7,"16:03:44",1
"19/06/06","16:20",0.0,30.1,39.7,1005.5,292.7,1.0,2.1,302.1,0.16,14.9,26.5,"16:10:02",1
"19/06/06","16:30",0.0,30.0,39.3,1005.0,280.0,1.2,2.8,236.0,0.19,14.7,26.5,"16:27:12",1
"19/06/06","16:40",0.0,29.6,39.7,1004.8,261.7,1.3,3.1,232.6,0.14,14.5,26.6,"16:31:04",1
"19/06/06","16:50",0.0,31.0,39.4,1005.0,283.4,0.8,1.8,341.8,0.29,15.6,26.6,"16:49:12",1
"19/06/06","17:00",0.0,30.7,38.8,1005.0,282.7,1.1,3.2,236.7,0.22,15.1,26.7,"16:57:04",1
"19/06/06","17:10",0.0,30.6,37.6,1004.8,265.1,1.0,2.5,252.1,0.14,14.5,26.6,"17:00:02",1
"19/06/06","17:20",0.0,30.9,37.4,1005.0,264.6,1.1,3.4,224.5,0.10,14.7,26.5,"17:10:08",1
"19/06/06","17:30",0.0,30.5,38.4,1005.0,310.3,1.3,3.7,339.1,0.06,14.8,26.4,"17:22:24",1
"19/06/06","17:40",0.0,29.8,40.1,1004.8,302.6,1.2,2.7,334.2,0.05,14.8,26.3,"17:32:24",1
"19/06/06","17:50",0.0,30.1,41.5,1004.5,278.7,0.8,2.7,224.4,0.05,15.6,26.3,"17:47:36",1
"19/06/06","18:00",0.0,30.1,41.0,1004.8,257.8,1.1,3.4,235.7,0.05,15.4,26.2,"17:51:52",1
"19/06/06","18:10",0.0,29.9,40.3,1004.5,275.3,1.0,2.2,265.8,0.03,15.0,26.0,"18:06:48",1
"19/06/06","18:20",0.0,29.5,40.7,1004.5,292.5,0.8,2.1,280.0,0.02,14.8,26.0,"18:13:44",1
"19/06/06","18:30",0.0,29.3,40.7,1004.1,290.3,1.0,2.6,331.9,0.01,14.6,25.8,"18:26:56",1
"19/06/06","18:40",0.0,28.7,43.5,1004.3,322.0,1.2,2.2,334.4,0.00,15.1,25.6,"18:39:44",1
"19/06/06","18:50",0.0,27.8,48.2,1003.6,334.3,1.3,2.1,340.9,0.00,15.9,25.6,"18:40:40",1
"19/06/06","19:00",0.0,26.9,52.1,1003.8,330.5,1.1,1.7,334.8,0.00,16.3,25.3,"18:50:08",1
"19/06/06","19:10",0.0,26.2,53.6,1004.1,329.2,1.3,2.1,344.3,0.00,16.1,25.3,"19:07:52",1
"19/06/06","19:20",0.0,25.8,54.5,1004.1,323.6,1.3,2.8,325.6,0.00,16.0,25.0,"19:12:24",1
"19/06/06","19:30",0.0,25.5,55.0,1004.1,326.7,1.8,3.2,338.5,0.00,15.8,24.8,"19:29:36",1
"19/06/06","19:40",0.0,25.2,55.5,1004.3,314.7,1.5,2.6,336.6,0.00,15.7,24.8,"19:33:52",1
"19/06/06","19:50",0.0,24.9,56.2,1004.3,300.1,0.8,1.7,320.3,0.00,15.6,24.6,"19:41:04",1
"19/06/06","20:00",0.0,24.5,57.5,1004.3,276.9,0.6,1.9,317.6,0.00,15.6,24.4,"19:54:16",1
"19/06/06","20:10",0.0,24.2,58.8,1004.3,288.8,1.1,2.1,327.7,0.00,15.7,24.3,"20:09:36",1
"19/06/06","20:20",0.0,23.9,59.4,1004.8,284.0,1.2,2.0,304.8,0.00,15.6,24.3,"20:18:00",1
"19/06/06","20:30",0.0,23.8,59.9,1004.5,292.6,0.8,1.9,319.4,0.00,15.6,24.1,"20:24:16",1
"19/06/06","20:40",0.0,23.7,59.8,1004.8,304.5,1.2,1.9,325.5,0.00,15.5,23.8,"20:38:40",1
"19/06/06","20:50",0.0,23.6,60.6,1005.2,297.4,1.5,2.7,270.2,0.00,15.6,23.9,"20:48:40",1
"19/06/06","21:00",0.0,24.0,58.3,1005.0,305.4,2.2,4.1,333.3,0.00,15.4,23.8,"20:52:16",1
"19/06/06","21:10",0.0,23.5,59.0,1005.2,298.7,1.1,1.6,308.7,0.00,15.1,23.6,"21:05:04",1
"19/06/06","21:20",0.0,23.3,60.1,1005.0,320.4,1.6,2.6,322.2,0.00,15.2,23.4,"21:15:36",1
"19/06/06","21:30",0.0,23.2,62.0,1005.5,321.4,0.6,1.7,319.4,0.00,15.6,23.6,"21:20:16",1
"19/06/06","21:40",0.0,22.9,63.8,1005.7,335.0,1.6,2.8,330.5,0.00,15.7,23.3,"21:36:16",1
"19/06/06","21:50",0.0,23.0,63.8,1005.5,338.9,1.2,2.7,330.8,0.00,15.8,23.2,"21:42:16",1
"19/06/06","22:00",0.0,22.4,64.9,1005.7,320.7,0.6,2.1,346.7,0.00,15.5,23.2,"21:51:20",1
"19/06/06","22:10",0.0,22.1,66.8,1005.5,306.3,0.7,1.2,329.3,0.00,15.7,23.1,"22:02:00",1
"19/06/06","22:20",0.0,22.0,67.7,1005.2,318.9,1.2,1.8,308.6,0.00,15.8,23.0,"22:14:16",1
"19/06/06","22:30",0.0,21.8,67.6,1005.5,320.0,1.1,1.6,335.9,0.00,15.6,22.8,"22:23:20",1
"19/06/06","22:40",0.0,21.7,67.3,1005.2,304.6,1.3,2.6,312.4,0.00,15.4,22.8,"22:38:48",1
"19/06/06","22:50",0.0,21.5,67.5,1005.0,278.9,0.8,1.7,307.1,0.00,15.3,22.7,"22:40:16",1
"19/06/06","23:00",0.0,21.5,67.2,1005.2,304.2,1.3,1.8,329.4,0.00,15.2,22.6,"22:57:12",1
"19/06/06","23:10",0.0,21.4,67.4,1005.0,292.7,1.1,1.6,314.4,0.00,15.2,22.5,"23:00:16",1
"19/06/06","23:20",0.0,21.4,67.7,1005.0,297.9,1.1,1.9,312.8,0.00,15.2,22.4,"23:13:36",1
"19/06/06","23:30",0.0,21.3,67.2,1005.2,300.6,1.2,2.0,307.7,0.00,15.0,22.5,"23:27:20",1
"19/06/06","23:40",0.0,21.0,68.2,1005.7,318.6,1.1,1.4,321.9,0.00,15.0,22.4,"23:30:40",1
"19/06/06","23:50",0.0,20.7,69.6,1005.2,306.2,1.0,1.4,332.8,0.00,15.0,22.2,"23:41:44",1
"19/06/06","24:00",0.0,20.8,70.3,1005.2,307.3,1.0,2.0,310.8,0.00,15.2,22.3,"23:52:32",1
